NWS106 UMKK-UUEE

Flight info

Callsign NWS106
Flight time N/A
Altitude 35000
Route PELUG3M PELUG DCT OTVOV DCT KEDUX DCT PIVAX DCT PIRUX DCT PISIM DCT PIDIN DCT ARANS/K0846F350 DCT PISIS DCT MIGTU T73 NAMIN NAMIN3E
Aircraft B738/M-SDE2E3FGHIRWXY/LB1

Departure

Time N/A
Airport Khrabrovo Airport (UMKK)

Arrival

Time 2026-05-06 17:34
Airport Sheremetyevo International Airport (UUEE)
Time Latitude Longitude Altitude Speed Heading
2026-05-06 16:48 59.43380 31.97580 35021 ft 478 kts 133°
2026-05-06 16:48 59.41179 32.02503 35020 ft 478 kts 133°
2026-05-06 16:49 59.36786 32.12338 35020 ft 478 kts 133°
2026-05-06 16:49 59.32358 32.22193 35020 ft 478 kts 133°
2026-05-06 16:50 59.27959 32.31930 35020 ft 478 kts 133°
2026-05-06 16:50 59.23531 32.41682 35020 ft 478 kts 133°
2026-05-06 16:51 59.19106 32.51383 35020 ft 478 kts 133°
2026-05-06 16:51 59.14667 32.61074 35020 ft 478 kts 133°
2026-05-06 16:52 59.10206 32.70773 35020 ft 478 kts 134°
2026-05-06 16:52 59.05791 32.80338 35020 ft 478 kts 134°
2026-05-06 16:53 59.01316 32.89988 35020 ft 478 kts 134°
2026-05-06 16:53 58.96874 32.99525 35020 ft 477 kts 135°
2026-05-06 16:54 58.92398 33.09081 35020 ft 478 kts 135°
2026-05-06 16:54 58.87892 33.18658 35010 ft 480 kts 135°
2026-05-06 16:55 58.83383 33.28205 34977 ft 480 kts 135°
2026-05-06 16:55 58.78859 33.37751 34945 ft 480 kts 135°
2026-05-06 16:56 58.74341 33.47245 34938 ft 479 kts 135°
2026-05-06 16:56 58.69811 33.56726 34940 ft 480 kts 135°
2026-05-06 16:57 58.65431 33.65855 34939 ft 480 kts 136°
2026-05-06 16:57 58.61244 33.74558 34939 ft 479 kts 136°
2026-05-06 16:58 58.57005 33.83334 34939 ft 479 kts 136°
2026-05-06 16:58 58.52726 33.92154 34939 ft 479 kts 136°
2026-05-06 16:59 58.48318 34.01203 34939 ft 479 kts 136°
2026-05-06 16:59 58.43892 34.10255 34939 ft 479 kts 136°
2026-05-06 17:00 58.39419 34.19362 34939 ft 479 kts 136°
2026-05-06 17:00 58.34969 34.28388 34939 ft 479 kts 136°
2026-05-06 17:01 58.30371 34.37676 34939 ft 480 kts 136°
2026-05-06 17:01 58.25796 34.46878 34939 ft 479 kts 136°
2026-05-06 17:02 58.21172 34.56142 34935 ft 480 kts 136°
2026-05-06 17:02 58.16228 34.64560 34921 ft 477 kts 143°
2026-05-06 17:03 58.11099 34.72558 34901 ft 476 kts 143°
2026-05-06 17:03 58.05977 34.80612 34886 ft 477 kts 143°
2026-05-06 17:04 58.00869 34.88619 34885 ft 478 kts 143°
2026-05-06 17:04 57.95739 34.96640 34886 ft 481 kts 142°
2026-05-06 17:05 57.90565 35.04710 34884 ft 482 kts 142°
2026-05-06 17:05 57.85381 35.12772 34884 ft 481 kts 142°
2026-05-06 17:06 57.80206 35.20782 34885 ft 481 kts 142°
2026-05-06 17:06 57.75004 35.28803 34885 ft 482 kts 142°
2026-05-06 17:07 57.69852 35.36719 34885 ft 481 kts 142°
2026-05-06 17:07 57.64677 35.44634 34885 ft 481 kts 142°
2026-05-06 17:08 57.59460 35.52584 34884 ft 481 kts 142°
2026-05-06 17:08 57.54272 35.60500 34885 ft 483 kts 142°
2026-05-06 17:09 57.49072 35.68405 34884 ft 480 kts 143°
2026-05-06 17:09 57.43899 35.76248 34885 ft 481 kts 143°
2026-05-06 17:10 57.38688 35.84111 34885 ft 482 kts 143°
2026-05-06 17:10 57.33435 35.92006 34884 ft 481 kts 143°
2026-05-06 17:11 57.28231 35.99802 34802 ft 476 kts 143°
2026-05-06 17:11 57.25631 36.03686 33961 ft 478 kts 143°
2026-05-06 17:11 57.23031 36.07557 33046 ft 480 kts 143°
2026-05-06 17:11 57.20437 36.11412 32116 ft 483 kts 143°
2026-05-06 17:12 57.17806 36.15317 31146 ft 485 kts 143°
2026-05-06 17:12 57.15177 36.19208 30146 ft 488 kts 143°
2026-05-06 17:12 57.12518 36.23141 29100 ft 490 kts 142°
2026-05-06 17:12 57.09857 36.27072 28012 ft 493 kts 142°
2026-05-06 17:13 57.07183 36.31014 26871 ft 496 kts 142°
2026-05-06 17:13 57.04478 36.34994 25663 ft 499 kts 142°
2026-05-06 17:13 57.01794 36.38922 24421 ft 501 kts 142°
2026-05-06 17:13 56.99047 36.42897 23334 ft 495 kts 142°
2026-05-06 17:14 56.96386 36.46733 22610 ft 480 kts 142°
2026-05-06 17:14 56.93809 36.50444 21775 ft 474 kts 142°
2026-05-06 17:14 56.91231 36.54150 20923 ft 469 kts 142°
2026-05-06 17:14 56.88653 36.57853 20055 ft 464 kts 142°
2026-05-06 17:15 56.86159 36.61453 19207 ft 458 kts 142°
2026-05-06 17:15 56.83687 36.65031 18356 ft 453 kts 143°
2026-05-06 17:15 56.81222 36.68595 17518 ft 448 kts 143°
2026-05-06 17:15 56.78794 36.72100 16927 ft 436 kts 143°
2026-05-06 17:16 56.76474 36.75443 16537 ft 421 kts 143°
2026-05-06 17:16 56.74214 36.78692 16341 ft 403 kts 143°
2026-05-06 17:16 56.72066 36.81792 15961 ft 392 kts 141°
2026-05-06 17:16 56.70112 36.85087 15897 ft 373 kts 136°
2026-05-06 17:17 56.68389 36.88275 15906 ft 355 kts 135°
2026-05-06 17:17 56.66662 36.91436 15908 ft 352 kts 136°
2026-05-06 17:17 56.64948 36.94542 15572 ft 350 kts 136°
2026-05-06 17:17 56.63206 36.97690 15081 ft 354 kts 136°
2026-05-06 17:18 56.61453 37.00853 14558 ft 353 kts 136°
2026-05-06 17:18 56.59708 37.03994 14032 ft 351 kts 136°
2026-05-06 17:18 56.57982 37.07096 13515 ft 349 kts 136°
2026-05-06 17:18 56.56261 37.10184 12995 ft 347 kts 136°
2026-05-06 17:19 56.54539 37.13270 12477 ft 345 kts 135°
2026-05-06 17:19 56.52845 37.16265 12130 ft 338 kts 139°
2026-05-06 17:19 56.50923 37.18585 11960 ft 323 kts 158°
2026-05-06 17:19 56.48817 37.19721 11716 ft 313 kts 169°
2026-05-06 17:20 56.46688 37.20517 11463 ft 308 kts 169°
2026-05-06 17:20 56.44602 37.21344 11213 ft 307 kts 168°
2026-05-06 17:20 56.42506 37.22190 10961 ft 307 kts 168°
2026-05-06 17:20 56.40427 37.23030 10710 ft 305 kts 168°
2026-05-06 17:21 56.38369 37.23864 10422 ft 299 kts 168°
2026-05-06 17:21 56.36342 37.24686 10065 ft 296 kts 168°
2026-05-06 17:21 56.34364 37.25489 9942 ft 285 kts 168°
2026-05-06 17:21 56.32406 37.26282 9543 ft 290 kts 168°
2026-05-06 17:22 56.30442 37.27076 9169 ft 289 kts 168°
2026-05-06 17:22 56.28465 37.27877 8800 ft 287 kts 168°
2026-05-06 17:22 56.26526 37.28661 8439 ft 286 kts 168°
2026-05-06 17:22 56.24569 37.29488 8069 ft 285 kts 165°
2026-05-06 17:23 56.22669 37.30443 7711 ft 284 kts 164°
2026-05-06 17:23 56.20758 37.31408 7330 ft 283 kts 164°
2026-05-06 17:23 56.18840 37.32077 7123 ft 274 kts 180°
2026-05-06 17:23 56.17055 37.31421 7030 ft 261 kts 210°
2026-05-06 17:24 56.15727 37.29319 6988 ft 248 kts 238°
2026-05-06 17:24 56.14979 37.26548 6953 ft 247 kts 256°
2026-05-06 17:24 56.14545 37.23512 6723 ft 254 kts 259°
2026-05-06 17:24 56.14108 37.20372 6435 ft 257 kts 258°
2026-05-06 17:25 56.13664 37.17273 6147 ft 255 kts 258°
2026-05-06 17:25 56.13227 37.14227 5863 ft 254 kts 257°
2026-05-06 17:25 56.12771 37.11164 5575 ft 252 kts 258°
2026-05-06 17:25 56.12347 37.08133 5289 ft 249 kts 258°
2026-05-06 17:26 56.11744 37.05167 5026 ft 253 kts 240°
2026-05-06 17:26 56.10487 37.02974 4994 ft 256 kts 214°
2026-05-06 17:26 56.08962 37.01331 5005 ft 259 kts 214°
2026-05-06 17:26 56.07403 36.99553 4826 ft 264 kts 215°
2026-05-06 17:27 56.05867 36.97769 4549 ft 261 kts 214°
2026-05-06 17:27 56.04355 36.96017 4271 ft 257 kts 215°
2026-05-06 17:27 56.02877 36.94305 4191 ft 245 kts 215°
2026-05-06 17:27 56.01472 36.92670 4115 ft 234 kts 215°
2026-05-06 17:28 56.00031 36.91353 4041 ft 233 kts 195°
2026-05-06 17:28 55.98436 36.91414 3991 ft 236 kts 159°
2026-05-06 17:28 55.97195 36.92807 4011 ft 238 kts 140°
2026-05-06 17:28 55.95863 36.94624 3986 ft 235 kts 144°
2026-05-06 17:29 55.94559 36.96246 3971 ft 228 kts 144°
2026-05-06 17:29 55.93232 36.97898 3987 ft 232 kts 144°
2026-05-06 17:29 55.91997 36.99667 3967 ft 226 kts 129°
2026-05-06 17:29 55.91331 37.02139 3972 ft 219 kts 95°
2026-05-06 17:30 55.91498 37.04752 3990 ft 217 kts 67°
2026-05-06 17:30 55.91991 37.07309 4003 ft 218 kts 72°
2026-05-06 17:30 55.92371 37.09917 3900 ft 218 kts 71°
2026-05-06 17:30 55.92774 37.12517 3626 ft 215 kts 72°
2026-05-06 17:31 55.93158 37.15043 3397 ft 205 kts 72°
2026-05-06 17:31 55.93527 37.17486 3071 ft 198 kts 72°
2026-05-06 17:31 55.93873 37.19781 2802 ft 190 kts 71°
2026-05-06 17:31 55.94220 37.22061 2550 ft 186 kts 72°
2026-05-06 17:32 55.94544 37.24218 2319 ft 176 kts 70°
2026-05-06 17:32 55.94843 37.26199 2082 ft 163 kts 71°
2026-05-06 17:32 55.95134 37.28120 1884 ft 166 kts 71°
2026-05-06 17:32 55.95425 37.30059 1640 ft 163 kts 72°
2026-05-06 17:33 55.95708 37.31958 1430 ft 163 kts 70°
2026-05-06 17:33 55.96001 37.33885 1221 ft 162 kts 72°
2026-05-06 17:33 55.96284 37.35770 1016 ft 162 kts 69°
2026-05-06 17:33 55.96561 37.37658 798 ft 157 kts 72°
2026-05-06 17:34 55.96838 37.39481 643 ft 142 kts 72°
2026-05-06 17:34 55.97042 37.40808 638 ft 68 kts 74°
2026-05-06 17:34 55.97116 37.41283 638 ft 21 kts 60°
2026-05-06 17:34 55.97228 37.41314 638 ft 16 kts 340°
2026-05-06 17:35 55.97340 37.41262 638 ft 15 kts 348°
2026-05-06 17:35 55.97429 37.41225 638 ft 11 kts 345°
2026-05-06 17:35 55.97493 37.41192 638 ft 7 kts 343°
2026-05-06 17:36 55.97631 37.41242 638 ft 18 kts 71°
2026-05-06 17:36 55.97665 37.41455 638 ft 16 kts 74°
2026-05-06 17:36 55.97692 37.41626 638 ft 13 kts 74°
2026-05-06 17:36 55.97718 37.41799 638 ft 11 kts 70°
2026-05-06 17:37 55.97767 37.41827 638 ft 6 kts 348°
2026-05-06 17:37 55.97791 37.41816 638 ft 1 kts 345°
2026-05-06 17:37 55.97796 37.41814 638 ft 0 kts 345°